When you browse on this site, cookies collect data to enhance your experience and personalize the content and advertising you see.
Visit our Privacy Policy to learn more. By continuing to use the site, you agree to this use of cookies and data.
  • în România
  • Lista ţărilor
  • Pe 7 zile
  • Temperatura apei
  • Hartă satelitară
  • Meteo pe hartă
  • Widget-uri
  • user-avatar
    Intrare

    Meteo pe oră la Zherotino

    Astăzi, 25 Aprilie, Joi

    Timp Temperatura Precipitaţii Vânt Presiune Umiditate
    00:00 +13°C° 0 mm 1 m/s 753 mmHg 63%
    01:00 +12°C° 0 mm 1 m/s 753 mmHg 65%
    02:00 +10°C° 0 mm 0 m/s 753 mmHg 69%
    03:00 +10°C° 0 mm 0 m/s 753 mmHg 70%
    04:00 +11°C° 0 mm 1 m/s 753 mmHg 70%
    05:00 +11°C° 0 mm 1 m/s 753 mmHg 71%
    06:00 +13°C° 0 mm 1 m/s 753 mmHg 65%
    07:00 +15°C° 0 mm 1 m/s 753 mmHg 58%
    08:00 +18°C° 0 mm 1 m/s 753 mmHg 52%
    09:00 +20°C° 0 mm 1 m/s 753 mmHg 47%
    10:00 +22°C° 0 mm 1 m/s 753 mmHg 42%
    11:00 +24°C° 0 mm 1 m/s 753 mmHg 37%
    12:00 +24°C° 0 mm 1 m/s 752 mmHg 35%
    13:00 +25°C° 0 mm 1 m/s 752 mmHg 33%
    14:00 +24°C° 0 mm 0 m/s 752 mmHg 31%
    15:00 +24°C° 0 mm 1 m/s 752 mmHg 35%
    16:00 +23°C° 0 mm 1 m/s 752 mmHg 40%
    17:00 +21°C° 0 mm 1 m/s 751 mmHg 45%
    18:00 +20°C° 0 mm 1 m/s 751 mmHg 47%
    19:00 +17°C° 0 mm 0 m/s 751 mmHg 49%
    20:00 +16°C° 0 mm 0 m/s 751 mmHg 51%
    21:00 +15°C° 0.2 mm 0 m/s 751 mmHg 55%
    22:00 +15°C° 0.2 mm 1 m/s 751 mmHg 58%
    23:00 +14°C° 0.2 mm 1 m/s 751 mmHg 62%

    Mâine, 26 Aprilie, Vineri

    Timp Temperatura Precipitaţii Vânt Presiune Umiditate
    00:00 +14°C° 0 mm 1 m/s 751 mmHg 65%
    01:00 +13°C° 0 mm 1 m/s 751 mmHg 67%
    02:00 +13°C° 0 mm 1 m/s 751 mmHg 70%
    03:00 +12°C° 0 mm 1 m/s 751 mmHg 72%
    04:00 +12°C° 0 mm 1 m/s 751 mmHg 74%
    05:00 +12°C° 0 mm 1 m/s 751 mmHg 76%
    06:00 +14°C° 0.1 mm 1 m/s 751 mmHg 71%
    07:00 +15°C° 0.1 mm 1 m/s 751 mmHg 66%
    08:00 +18°C° 0.1 mm 1 m/s 751 mmHg 62%
    09:00 +19°C° 0 mm 1 m/s 751 mmHg 56%
    10:00 +20°C° 0 mm 2 m/s 750 mmHg 50%
    11:00 +21°C° 0 mm 2 m/s 750 mmHg 44%
    12:00 +21°C° 0 mm 2 m/s 750 mmHg 41%
    13:00 +23°C° 0 mm 2 m/s 750 mmHg 39%
    14:00 +23°C° 0 mm 2 m/s 749 mmHg 36%
    15:00 +23°C° 0 mm 1 m/s 749 mmHg 38%
    16:00 +22°C° 0 mm 1 m/s 749 mmHg 39%
    17:00 +22°C° 0 mm 1 m/s 748 mmHg 40%
    18:00 +21°C° 0 mm 1 m/s 748 mmHg 44%
    19:00 +19°C° 0 mm 1 m/s 748 mmHg 48%
    20:00 +17°C° 0 mm 2 m/s 748 mmHg 52%
    21:00 +16°C° 0 mm 2 m/s 748 mmHg 54%
    22:00 +15°C° 0 mm 2 m/s 747 mmHg 56%
    23:00 +15°C° 0 mm 2 m/s 747 mmHg 58%

    Poimâine, 27 Aprilie, Sâmbătă

    Timp Temperatura Precipitaţii Vânt Presiune Umiditate
    00:00 +14°C° 0 mm 2 m/s 747 mmHg 61%
    01:00 +13°C° 0 mm 2 m/s 746 mmHg 64%
    02:00 +13°C° 0 mm 1 m/s 746 mmHg 67%
    03:00 +13°C° 0 mm 2 m/s 746 mmHg 67%
    04:00 +13°C° 0 mm 2 m/s 745 mmHg 68%
    05:00 +13°C° 0 mm 2 m/s 745 mmHg 69%
    06:00 +15°C° 0 mm 2 m/s 745 mmHg 64%
    07:00 +16°C° 0 mm 3 m/s 744 mmHg 60%
    08:00 +18°C° 0 mm 3 m/s 744 mmHg 55%
    09:00 +19°C° 0 mm 4 m/s 744 mmHg 50%
    10:00 +21°C° 0 mm 4 m/s 743 mmHg 44%
    11:00 +22°C° 0 mm 5 m/s 743 mmHg 39%
    12:00 +22°C° 0 mm 5 m/s 742 mmHg 38%
    13:00 +23°C° 0 mm 4 m/s 742 mmHg 37%
    14:00 +23°C° 0 mm 4 m/s 742 mmHg 36%
    15:00 +24°C° 0 mm 3 m/s 741 mmHg 37%
    16:00 +22°C° 0 mm 3 m/s 741 mmHg 38%
    17:00 +23°C° 0 mm 2 m/s 740 mmHg 40%
    18:00 +20°C° 0 mm 2 m/s 740 mmHg 47%
    19:00 +18°C° 0 mm 2 m/s 740 mmHg 54%
    20:00 +16°C° 0 mm 2 m/s 740 mmHg 62%
    21:00 +15°C° 0.4 mm 2 m/s 740 mmHg 71%
    22:00 +13°C° 0.4 mm 3 m/s 740 mmHg 80%
    23:00 +12°C° 0.4 mm 3 m/s 740 mmHg 89%

    28 Aprilie, Duminică

    Timp Temperatura Precipitaţii Vânt Presiune Umiditate
    00:00 +12°C° 0.4 mm 3 m/s 740 mmHg 89%
    01:00 +11°C° 0.4 mm 4 m/s 741 mmHg 89%
    02:00 +11°C° 0.4 mm 4 m/s 741 mmHg 89%
    03:00 +9°C° 0.1 mm 5 m/s 741 mmHg 87%
    04:00 +8°C° 0.1 mm 5 m/s 742 mmHg 86%
    05:00 +6°C° 0.1 mm 5 m/s 742 mmHg 84%
    06:00 +6°C° 0 mm 5 m/s 743 mmHg 80%
    07:00 +4°C° 0 mm 6 m/s 744 mmHg 75%
    08:00 +3°C° 0 mm 6 m/s 745 mmHg 71%
    09:00 +4°C° 0 mm 6 m/s 746 mmHg 62%
    10:00 +5°C° 0 mm 6 m/s 746 mmHg 52%
    11:00 +7°C° 0 mm 5 m/s 747 mmHg 43%
    12:00 +7°C° 0 mm 5 m/s 747 mmHg 41%
    13:00 +8°C° 0 mm 5 m/s 748 mmHg 40%
    14:00 +8°C° 0 mm 5 m/s 748 mmHg 38%
    15:00 +8°C° 0 mm 5 m/s 748 mmHg 38%
    16:00 +7°C° 0 mm 5 m/s 748 mmHg 39%
    17:00 +7°C° 0 mm 5 m/s 749 mmHg 39%
    18:00 +5°C° 0 mm 4 m/s 749 mmHg 43%
    19:00 +4°C° 0 mm 4 m/s 750 mmHg 47%
    20:00 +2°C° 0 mm 3 m/s 750 mmHg 52%
    21:00 +2°C° 0 mm 3 m/s 751 mmHg 54%
    22:00 +1°C° 0 mm 3 m/s 751 mmHg 57%
    23:00 +1°C° 0 mm 3 m/s 752 mmHg 59%

    29 Aprilie, Luni

    Timp Temperatura Precipitaţii Vânt Presiune Umiditate
    00:00 0°C° 0 mm 3 m/s 752 mmHg 61%
    01:00 +1°C° 0 mm 2 m/s 752 mmHg 63%
    02:00 -1°C° 0 mm 2 m/s 753 mmHg 66%
    03:00 -1°C° 0 mm 2 m/s 753 mmHg 67%
    04:00 -1°C° 0 mm 2 m/s 753 mmHg 68%
    05:00 -2°C° 0 mm 2 m/s 753 mmHg 69%
    06:00 0°C° 0 mm 3 m/s 753 mmHg 60%
    07:00 +2°C° 0 mm 3 m/s 754 mmHg 52%
    08:00 +3°C° 0 mm 3 m/s 754 mmHg 44%
    09:00 +4°C° 0 mm 3 m/s 754 mmHg 41%
    10:00 +5°C° 0 mm 3 m/s 754 mmHg 38%
    11:00 +7°C° 0 mm 3 m/s 754 mmHg 35%
    12:00 +8°C° 0 mm 3 m/s 754 mmHg 34%
    13:00 +8°C° 0 mm 3 m/s 753 mmHg 34%
    14:00 +9°C° 0 mm 3 m/s 753 mmHg 33%
    15:00 +8°C° 0 mm 3 m/s 753 mmHg 34%
    16:00 +8°C° 0 mm 3 m/s 753 mmHg 36%
    17:00 +8°C° 0 mm 3 m/s 753 mmHg 37%
    18:00 +6°C° 0 mm 2 m/s 753 mmHg 43%
    19:00 +5°C° 0 mm 2 m/s 753 mmHg 50%
    20:00 +3°C° 0 mm 2 m/s 753 mmHg 56%
    21:00 +3°C° 0 mm 1 m/s 753 mmHg 57%
    22:00 +2°C° 0 mm 1 m/s 753 mmHg 58%
    23:00 +2°C° 0 mm 1 m/s 754 mmHg 59%

    30 Aprilie, Marţi

    Timp Temperatura Precipitaţii Vânt Presiune Umiditate
    00:00 +1°C° 0 mm 1 m/s 754 mmHg 60%
    01:00 +1°C° 0 mm 1 m/s 754 mmHg 60%
    02:00 -1°C° 0 mm 0 m/s 754 mmHg 61%
    03:00 -1°C° 0 mm 0 m/s 754 mmHg 59%
    04:00 0°C° 0 mm 0 m/s 754 mmHg 58%
    05:00 +1°C° 0 mm 1 m/s 754 mmHg 56%
    06:00 +3°C° 0 mm 1 m/s 754 mmHg 50%
    07:00 +5°C° 0 mm 1 m/s 754 mmHg 43%
    08:00 +7°C° 0 mm 1 m/s 754 mmHg 37%
    09:00 +9°C° 0 mm 1 m/s 754 mmHg 34%
    10:00 +10°C° 0 mm 1 m/s 754 mmHg 32%
    11:00 +11°C° 0 mm 1 m/s 753 mmHg 30%
    12:00 +12°C° 0 mm 1 m/s 753 mmHg 29%
    13:00 +13°C° 0 mm 1 m/s 753 mmHg 29%
    14:00 +13°C° 0 mm 1 m/s 752 mmHg 28%
    15:00 +13°C° 0 mm 1 m/s 752 mmHg 29%
    16:00 +11°C° 0 mm 0 m/s 751 mmHg 30%
    17:00 +11°C° 0 mm 0 m/s 751 mmHg 31%
    18:00 +9°C° 0 mm 0 m/s 751 mmHg 36%
    19:00 +8°C° 0 mm 1 m/s 751 mmHg 41%
    20:00 +6°C° 0 mm 1 m/s 750 mmHg 46%
    21:00 +5°C° 0 mm 1 m/s 750 mmHg 48%
    22:00 +5°C° 0 mm 1 m/s 750 mmHg 49%
    23:00 +4°C° 0 mm 1 m/s 750 mmHg 51%
    Arată mai mult